[[{"header":{"parameterUnit":"m.s-1","parameterCategory":1,"la1":30.2991,"la2":30.254,"lo1":-89.0895,"lo2":-89.0444,"dy":0.0017,"dx":0.0017,"nx":28,"ny":28,"refTime":"2024-03-21T21:00:00:Z","depth":0,"parameterNumber":2,"parameterNumberName":"U-component_of_WINDS"},"data":[0,0,0,0,0,0,0,0,0,0,0,0,0,0,0,0,0,0,0,0,0,0,0,0,0,0,0,0,0,0,0,0,0,0,0,0,0,0,0,0,0,0,0,0,0,0,0,0,0,0,0,0,0,0,0,0,0,0,-2.0153,-2.0151,0,-1.9952,-1.9949,-1.9947,-1.9799,-1.9798,-1.9797,-1.9795,-1.9587,-1.9582,-1.9578,0,0,0,0,0,0,0,0,0,0,0,0,0,-2.0409,-2.0405,-2.0153,-2.0151,-2.0148,-1.9952,-1.9949,-1.9946,-1.9799,-1.9798,-1.9796,-1.9795,-1.9588,-1.9583,-1.9578,0,0,0,0,0,0,0,0,0,0,0,0,0,-2.0262,-2.0404,-2.0154,-2.0051,-2.004,-1.9953,-1.9949,-1.9946,-1.98,-1.9798,-1.9796,-1.9794,-1.959,-1.9583,-1.9577,-1.9575,0,0,-1.9557,-1.9554,0,0,0,0,0,0,0,0,-2.027,-2.0253,-2.0069,-2.0058,-2.0045,-1.9899,-1.9963,-1.9821,-1.98,-1.9891,-1.9795,-1.9793,-1.9692,-1.9677,-1.9643,-1.9565,-1.9556,-1.9556,-1.9552,-1.955,-1.9548,0,0,0,0,0,0,0,-2.0281,-2.026,-2.0073,-2.0066,-2.0052,-2.0015,-1.9992,-1.9935,-1.9804,-1.9883,-1.9872,-1.985,-1.9685,-1.965,-1.9637,-1.9553,-1.9557,-1.9551,-1.9547,-1.9544,-1.9462,-1.9464,0,0,0,0,0,0,-2.0307,-2.027,-2.008,-2.0067,-2.0156,-2.0012,-1.9986,-1.9948,-1.9805,-1.9781,-1.9852,-1.9844,-1.9662,-1.9645,-1.9629,-1.9617,-1.955,-1.9543,-1.954,-1.9461,-1.9463,-1.9465,0,0,0,0,0,0,-2.0313,-2.0292,-2.0088,-2.0165,-2.0137,-2.0009,-1.9967,-1.9945,-1.9909,-1.9781,-1.9757,-1.984,-1.966,-1.9638,-1.9589,-1.9607,-1.954,-1.9535,-1.9459,-1.9461,-1.9464,-1.9593,0,0,0,0,0,0,-2.0321,-2.0295,-2.0293,-2.0167,-2.0133,-2.0052,-1.9969,-1.9942,-1.9898,-1.9886,-1.9763,-1.9741,-1.9657,-1.96,-1.9583,-1.9597,-1.9529,-1.9456,-1.946,-1.9463,-1.9586,-1.9599,-1.9611,0,0,0,0,0,-2.0331,-2.0337,-2.0294,-2.0271,-2.0128,-2.0054,-2.0034,-1.9938,-1.9901,-1.9897,-1.9815,-1.9745,-1.9609,-1.9596,-1.9576,-1.9588,-1.9455,-1.9459,-1.9463,-1.9581,-1.9597,-1.961,0,0,0,0,0,0,-2.0467,-2.0318,-2.0269,-2.0234,-2.0158,-2.0029,-2.0022,-1.9958,-1.989,-1.9881,-1.9763,-1.9736,-1.97,-1.9639,-1.9628,-1.9579,-1.9523,-1.9523,-1.962,-1.9634,-1.9646,-1.9661,-1.9524,0,0,0,0,0,-2.0494,-2.0446,-2.0318,-2.03,-2.0264,-2.015,-2.0114,-2.0046,-1.9962,-1.9929,-1.9843,-1.9764,-1.9703,-1.9665,-1.9602,-1.9577,-1.9548,-1.9575,-1.9588,-1.9598,-1.96,-1.9582,-1.9593,-1.9478,-1.9478,-1.9478,0,0,-2.0547,-2.0459,-2.0436,-2.0325,-2.0258,-2.0211,-2.0124,-2.0078,-2.0041,-1.9921,-1.987,-1.9805,-1.9708,-1.9672,-1.9651,-1.962,-1.9625,-1.9604,-1.9613,-1.9608,-1.9587,-1.9598,-1.9608,-1.948,-1.948,-1.9479,0,0,-2.0619,-2.0549,-2.0526,-2.0461,-2.0361,-2.0285,-2.0281,-2.0161,-2.0114,-2.0061,-1.997,-1.9925,-1.9822,-1.9757,-1.9711,-1.9761,-1.9694,-1.9744,-1.9807,-1.9792,-1.9801,-1.9808,-1.9826,-1.9834,-1.9746,-1.9746,-1.9746,0,-2.0698,-2.0624,-2.0522,-2.0481,-2.0435,-2.0326,-2.0301,-2.0243,-2.0128,-2.0098,-2.0065,-1.9934,-1.9862,-1.9808,-1.9821,-1.9787,-1.9777,-1.9757,-1.9808,-1.9814,-1.982,-1.9835,-1.9842,-1.9753,-1.9752,-1.9751,-1.9751,0,-2.0725,-2.0676,-2.0669,-2.0562,-2.0514,-2.0482,-2.0375,-2.034,-2.0276,-2.0204,-2.0152,-2.0061,-1.9978,-1.996,-1.9897,-1.9898,-1.9882,-1.983,-1.9772,-1.9839,-1.9852,-1.9857,-1.9762,-1.976,-1.9758,-1.9756,0,0,-2.0877,-2.0715,-2.0714,-2.0664,-2.0546,-2.0506,-2.0469,-2.0388,-2.036,-2.0285,-2.025,-2.0167,-2.0119,-2.0066,-1.9995,-1.9982,-2.0027,-1.9931,-1.9927,-1.9952,-2.0022,-2.0062,-2.007,-1.9983,-1.9983,-1.9984,-2.003,0,-2.0931,-2.086,-2.0767,-2.0727,-2.068,-2.0576,-2.0543,-2.0468,-2.04,-2.035,-2.0274,-2.0217,-2.0157,-2.0125,-2.0107,-2.0026,-2.004,-2.0021,-1.9949,-1.9948,-1.9976,-2.0077,-2.0118,-2.0166,-2.0035,-2.0035,-2.0036,0,-2.0984,-2.0916,-2.0871,-2.0758,-2.0735,-2.0708,-2.0627,-2.058,-2.0493,-2.0444,-2.0387,-2.0311,-2.0266,-2.0215,-2.0151,-2.0141,-2.0106,-2.0062,-2.0061,-2.005,-1.9996,-2.0068,-2.0179,-2.0187,-2.0042,-2.0042,-2.0041,0,-2.11,-2.0996,-2.0955,-2.0916,-2.0784,-2.0767,-2.0711,-2.0621,-2.0579,-2.0508,-2.0479,-2.0405,-2.0363,-2.0307,-2.0212,-2.0184,-2.0159,-2.01,-2.0117,-2.012,-2.0116,-2.0117,-2.0223,-2.0095,-2.0095,-2.0095,-2.0095,0,-2.117,-2.1146,-2.1006,-2.0981,-2.0952,-2.0846,-2.082,-2.0754,-2.0675,-2.0636,-2.0541,-2.0506,-2.0384,-2.0334,-2.026,-2.0219,-2.0201,-2.016,-2.014,-2.0168,-2.0173,-2.0143,-2.0137,-2.0097,-2.0096,-2.0096,-2.0095,0,-2.1293,-2.1198,-2.1147,-2.1026,-2.0996,-2.098,-2.0875,-2.0847,-2.0775,-2.0726,-2.0708,-2.0593,-2.053,-2.0431,-2.0337,-2.0287,-2.0259,-2.0227,-2.0289,-2.0277,-2.03,-2.0299,-2.0389,-2.0395,-2.0265,-2.0267,-2.0268,0,-2.1344,-2.1323,-2.1201,-2.1168,-2.1116,-2.1064,-2.1021,-2.0916,-2.0875,-2.0774,-2.0758,-2.0688,-2.0626,-2.0529,-2.0437,-2.0365,-2.033,-2.0367,-2.0319,-2.0348,-2.033,-2.0333,-2.033,-2.0378,-2.038,-2.0382,-2.0383,0,-2.1444,-2.1398,-2.134,-2.1266,-2.1218,-2.1154,-2.1085,-2.1064,-2.0943,-2.0902,-2.0837,-2.0789,-2.0694,-2.0626,-2.0541,-2.0482,-2.0413,-2.0399,-2.0399,-2.0427,-2.0464,-2.0444,-2.0319,-2.0397,-2.0396,-2.0395,-2.0394,-2.0393,-2.1532,-2.1509,-2.142,-2.1359,-2.1296,-2.1235,-2.1203,-2.1127,-2.1071,-2.0986,-2.0927,-2.0866,-2.0778,-2.0658,-2.0603,-2.0553,-2.0523,-2.0523,-2.0523,-2.0525,-2.0535,-2.0473,-2.0537,-2.0537,-2.0536,-2.0536,-2.0535,0,-2.1627,-2.1565,-2.151,-2.1418,-2.1369,-2.1309,-2.1231,-2.1194,-2.1141,-2.1066,-2.1008,-2.0933,-2.0866,-2.0769,-2.0694,-2.0673,-2.0639,-2.0657,-2.0657,-2.0645,-2.0566,-2.0574,-2.0685,-2.0685,-2.0685,-2.0685,-2.0685,-2.0685,-2.1671,-2.163,-2.1574,-2.1501,-2.1438,-2.1378,-2.1338,-2.1281,-2.122,-2.1142,-2.1086,-2.1024,-2.0939,-2.0858,-2.0794,-2.0767,-2.0744,-2.0772,-2.0735,-2.0664,-2.065,-2.0637,-2.0643,-2.0768,-2.0768,-2.0817,-2.0818,-2.0818]},{"header":{"parameterUnit":"m.s-1","parameterCategory":1,"la1":30.2991,"la2":30.254,"lo1":-89.0895,"lo2":-89.0444,"dy":0.0017,"dx":0.0017,"nx":28,"ny":28,"refTime":"2024-03-21T21:00:00:Z","depth":0,"parameterNumber":3,"parameterNumberName":"V-component_of_WINDS"},"data":[0,0,0,0,0,0,0,0,0,0,0,0,0,0,0,0,0,0,0,0,0,0,0,0,0,0,0,0,0,0,0,0,0,0,0,0,0,0,0,0,0,0,0,0,0,0,0,0,0,0,0,0,0,0,0,0,0,0,3.3315,3.3316,0,3.3362,3.3362,3.3363,3.333,3.3329,3.3327,3.3326,3.3371,3.3374,3.3376,0,0,0,0,0,0,0,0,0,0,0,0,0,3.3197,3.3199,3.3315,3.3316,3.3317,3.3362,3.3362,3.3363,3.333,3.3329,3.3327,3.3325,3.337,3.3373,3.3376,0,0,0,0,0,0,0,0,0,0,0,0,0,3.3246,3.32,3.3315,3.3306,3.3305,3.3362,3.3362,3.3363,3.3331,3.3328,3.3326,3.3324,3.3369,3.3373,3.3377,3.3444,0,0,3.3389,3.339,0,0,0,0,0,0,0,0,3.3244,3.3251,3.3307,3.3306,3.3306,3.3338,3.3337,3.339,3.3331,3.3321,3.3326,3.3323,3.3362,3.3366,3.338,3.3447,3.3448,3.3389,3.3391,3.3393,3.3394,0,0,0,0,0,0,0,3.324,3.3249,3.3334,3.3307,3.3307,3.3299,3.3303,3.3347,3.3353,3.3322,3.3319,3.3326,3.3361,3.3376,3.338,3.3449,3.3389,3.3392,3.3395,3.3396,3.3576,3.3578,0,0,0,0,0,0,3.3238,3.3246,3.3332,3.3335,3.3269,3.3303,3.3308,3.333,3.3352,3.3354,3.3327,3.3324,3.337,3.3376,3.3382,3.3464,3.3393,3.3397,3.3399,3.3573,3.3576,3.3579,0,0,0,0,0,0,3.3236,3.3246,3.333,3.329,3.33,3.3307,3.3332,3.3332,3.3347,3.3357,3.3357,3.3342,3.3369,3.3376,3.343,3.3465,3.3398,3.3402,3.357,3.3574,3.3577,3.3628,0,0,0,0,0,0,3.3232,3.3245,3.3271,3.3291,3.3302,3.3378,3.3334,3.3334,3.3354,3.335,3.337,3.3371,3.3368,3.3424,3.3434,3.3469,3.3405,3.3567,3.3572,3.3576,3.3623,3.3633,3.3641,0,0,0,0,0,3.3228,3.3283,3.3273,3.3283,3.3335,3.338,3.3387,3.3382,3.3357,3.3383,3.339,3.3371,3.3459,3.343,3.344,3.3478,3.3565,3.3571,3.3576,3.3619,3.3631,3.3641,0,0,0,0,0,0,3.3266,3.3285,3.3274,3.3337,3.3357,3.3375,3.3408,3.3394,3.3422,3.3417,3.3409,3.3414,3.347,3.3478,3.3445,3.3545,3.3508,3.3516,3.3538,3.3549,3.3558,3.3555,3.3408,0,0,0,0,0,3.3282,3.3318,3.3332,3.3386,3.3397,3.3401,3.342,3.3415,3.3435,3.3443,3.3453,3.3474,3.3506,3.3527,3.3558,3.3624,3.3629,3.3655,3.3664,3.3671,3.3678,3.3716,3.3728,3.3597,3.3597,3.3597,0,0,3.3315,3.333,3.3353,3.3394,3.3409,3.3446,3.3408,3.3448,3.3476,3.3449,3.3501,3.3509,3.3531,3.3591,3.3618,3.36,3.3715,3.3678,3.3684,3.3687,3.3723,3.3735,3.3746,3.3601,3.36,3.3599,0,0,3.3395,3.3409,3.3456,3.3473,3.3496,3.3499,3.351,3.3529,3.3535,3.3586,3.3568,3.3599,3.3655,3.3672,3.3688,3.3775,3.3759,3.3784,3.3832,3.3869,3.3879,3.3888,3.3921,3.3933,3.3791,3.3792,3.3792,0,3.3433,3.3488,3.3482,3.3525,3.3544,3.3522,3.3571,3.3586,3.3618,3.3632,3.3611,3.3682,3.3695,3.376,3.3781,3.3794,3.3807,3.3783,3.3878,3.3887,3.3896,3.3927,3.3939,3.3795,3.3794,3.3794,3.3794,0,3.3535,3.3573,3.3609,3.3642,3.3665,3.371,3.3711,3.3734,3.3727,3.3731,3.3785,3.38,3.3834,3.3848,3.3841,3.3913,3.3901,3.3879,3.3842,3.3912,3.3941,3.3952,3.3799,3.3798,3.3797,3.3796,0,0,3.364,3.367,3.3683,3.3699,3.3724,3.3754,3.3797,3.3832,3.3853,3.3875,3.3913,3.3961,3.3942,3.396,3.3954,3.3985,3.4056,3.396,3.396,3.3979,3.4138,3.4155,3.4169,3.4045,3.4047,3.4049,3.4136,0,3.3722,3.3801,3.3797,3.387,3.3907,3.3887,3.3925,3.3945,3.395,3.3981,3.3986,3.4022,3.3992,3.4003,3.4034,3.4041,3.4088,3.4034,3.408,3.4082,3.4078,3.4184,3.4203,3.4285,3.4148,3.4149,3.4151,0,3.3829,3.3858,3.3935,3.3956,3.3971,3.4006,3.4037,3.4067,3.4089,3.409,3.4111,3.4101,3.4145,3.4106,3.4168,3.4132,3.415,3.4157,3.416,3.4165,3.4122,3.4194,3.4311,3.4324,3.4168,3.4167,3.4166,0,3.3901,3.3958,3.4012,3.4026,3.4051,3.4076,3.4088,3.4107,3.4128,3.4155,3.4169,3.42,3.4218,3.4243,3.4241,3.4212,3.4304,3.4265,3.4308,3.4308,3.4329,3.4328,3.4452,3.4338,3.4338,3.4338,3.4337,0,3.3995,3.4043,3.4045,3.4079,3.4133,3.4127,3.4181,3.4189,3.4207,3.4242,3.4225,3.4258,3.4253,3.4286,3.4284,3.4337,3.4344,3.4347,3.4347,3.435,3.435,3.4363,3.4358,3.4341,3.434,3.4339,3.4339,0,3.4085,3.4088,3.4146,3.4165,3.4171,3.421,3.4227,3.4259,3.4262,3.4307,3.4317,3.4323,3.4361,3.4361,3.4404,3.4403,3.4468,3.446,3.4461,3.446,3.4504,3.4501,3.4643,3.4662,3.4533,3.4534,3.4535,0,3.4145,3.4182,3.4206,3.4229,3.4243,3.4279,3.4301,3.4297,3.432,3.4349,3.4377,3.4414,3.4443,3.4505,3.4513,3.4546,3.4539,3.4587,3.4544,3.4547,3.4542,3.4541,3.4546,3.4596,3.4597,3.4598,3.4599,0,3.4253,3.4253,3.4285,3.4319,3.4346,3.4372,3.4396,3.4416,3.4414,3.4441,3.4481,3.4504,3.4548,3.4586,3.4618,3.4629,3.4615,3.4612,3.4624,3.4629,3.4629,3.4632,3.4486,3.4609,3.4608,3.4608,3.4607,3.4607,3.4331,3.4364,3.4387,3.4424,3.4442,3.4465,3.4497,3.4505,3.4538,3.4575,3.457,3.4615,3.4636,3.4678,3.4692,3.4726,3.471,3.4726,3.4731,3.4736,3.4742,3.4623,3.4732,3.4731,3.4731,3.4731,3.473,0,3.444,3.4454,3.4488,3.4523,3.4553,3.4537,3.4563,3.4589,3.4628,3.4649,3.4679,3.4725,3.4761,3.4772,3.4807,3.4832,3.4827,3.4842,3.4841,3.4844,3.4754,3.4741,3.4846,3.4846,3.4846,3.4846,3.4846,3.4846,3.45,3.4555,3.4558,3.4622,3.4635,3.468,3.4696,3.4718,3.4735,3.4788,3.4818,3.4825,3.4843,3.4879,3.4911,3.4913,3.4928,3.4946,3.4946,3.4862,3.485,3.4839,3.4827,3.4949,3.4949,3.5034,3.5035,3.5035]}]]